When you browse on this site, cookies collect data to enhance your experience and personalize the content and advertising you see.
Visit our Privacy Policy to learn more. By continuing to use the site, you agree to this use of cookies and data.
  • în România
  • Lista ţărilor
  • Pe 7 zile
  • Temperatura apei
  • Hartă satelitară
  • Meteo pe hartă
  • Widget-uri
  • user-avatar
    Intrare

    Meteo pe oră la Vlorë

    Astăzi, 23 Ianuarie, Miercuri

    Timp Temperatura Precipitaţii Vânt Presiune Umiditate
    00:00 +9°C° 0.2 mm 5 m/s 754 mmHg 96%
    01:00 +9°C° 0.2 mm 5 m/s 753 mmHg 96%
    02:00 +9°C° 0.6 mm 5 m/s 753 mmHg 95%
    03:00 +9°C° 0.6 mm 5 m/s 753 mmHg 94%
    04:00 +9°C° 0.6 mm 5 m/s 752 mmHg 93%
    05:00 +9°C° 0.6 mm 5 m/s 752 mmHg 94%
    06:00 +9°C° 0.6 mm 5 m/s 752 mmHg 96%
    07:00 +9°C° 0.6 mm 5 m/s 751 mmHg 97%
    08:00 +9°C° 0.5 mm 5 m/s 751 mmHg 97%
    09:00 +9°C° 0.5 mm 5 m/s 751 mmHg 97%
    10:00 +9°C° 0.5 mm 5 m/s 751 mmHg 97%
    11:00 +9°C° 0.7 mm 5 m/s 750 mmHg 97%
    12:00 +8°C° 0.7 mm 5 m/s 749 mmHg 97%
    13:00 +8°C° 0.7 mm 4 m/s 749 mmHg 97%
    14:00 +8°C° 0.3 mm 4 m/s 748 mmHg 97%
    15:00 +9°C° 0.3 mm 3 m/s 747 mmHg 97%
    16:00 +9°C° 0.3 mm 2 m/s 747 mmHg 97%
    17:00 +9°C° 0.5 mm 2 m/s 746 mmHg 97%
    18:00 +9°C° 0.5 mm 2 m/s 746 mmHg 98%
    19:00 +9°C° 0.5 mm 3 m/s 746 mmHg 98%
    20:00 +9°C° 0.3 mm 3 m/s 746 mmHg 98%
    21:00 +9°C° 0.3 mm 3 m/s 746 mmHg 98%
    22:00 +8°C° 0.3 mm 3 m/s 745 mmHg 97%
    23:00 +8°C° 0.1 mm 3 m/s 745 mmHg 97%

    Mâine, 24 Ianuarie, Joi

    Timp Temperatura Precipitaţii Vânt Presiune Umiditate
    00:00 +8°C° 0.1 mm 3 m/s 745 mmHg 96%
    01:00 +8°C° 0.1 mm 2 m/s 744 mmHg 95%
    02:00 +8°C° 0 mm 2 m/s 744 mmHg 95%
    03:00 +8°C° 0 mm 2 m/s 744 mmHg 95%
    04:00 +8°C° 0 mm 2 m/s 744 mmHg 95%
    05:00 +9°C° 0 mm 1 m/s 744 mmHg 96%
    06:00 +9°C° 0 mm 1 m/s 744 mmHg 97%
    07:00 +9°C° 0 mm 1 m/s 744 mmHg 97%
    08:00 +9°C° 0 mm 2 m/s 744 mmHg 95%
    09:00 +9°C° 0 mm 2 m/s 745 mmHg 93%
    10:00 +10°C° 0 mm 3 m/s 745 mmHg 90%
    11:00 +10°C° 0 mm 4 m/s 744 mmHg 86%
    12:00 +11°C° 0 mm 4 m/s 744 mmHg 81%
    13:00 +12°C° 0 mm 4 m/s 744 mmHg 77%
    14:00 +10°C° 0 mm 5 m/s 743 mmHg 78%
    15:00 +10°C° 0 mm 5 m/s 743 mmHg 80%
    16:00 +10°C° 0 mm 5 m/s 743 mmHg 81%
    17:00 +9°C° 0 mm 5 m/s 742 mmHg 81%
    18:00 +8°C° 0 mm 6 m/s 742 mmHg 82%
    19:00 +8°C° 0 mm 6 m/s 741 mmHg 82%
    20:00 +7°C° 0.4 mm 6 m/s 742 mmHg 83%
    21:00 +6°C° 0.4 mm 7 m/s 742 mmHg 84%
    22:00 +6°C° 0.4 mm 7 m/s 742 mmHg 84%
    23:00 +6°C° 0.6 mm 8 m/s 742 mmHg 87%

    Poimâine, 25 Ianuarie, Vineri

    Timp Temperatura Precipitaţii Vânt Presiune Umiditate
    00:00 +6°C° 0.6 mm 9 m/s 742 mmHg 89%
    01:00 +7°C° 0.6 mm 10 m/s 742 mmHg 92%
    02:00 +6°C° 0.3 mm 10 m/s 742 mmHg 92%
    03:00 +6°C° 0.3 mm 9 m/s 742 mmHg 92%
    04:00 +6°C° 0.3 mm 8 m/s 742 mmHg 93%
    05:00 +6°C° 0.2 mm 8 m/s 742 mmHg 92%
    06:00 +6°C° 0.2 mm 8 m/s 742 mmHg 91%
    07:00 +6°C° 0.2 mm 8 m/s 743 mmHg 90%
    08:00 +6°C° 0.1 mm 7 m/s 743 mmHg 87%
    09:00 +8°C° 0.1 mm 5 m/s 743 mmHg 85%
    10:00 +8°C° 0.1 mm 4 m/s 744 mmHg 82%
    11:00 +10°C° 0 mm 4 m/s 744 mmHg 81%
    12:00 +10°C° 0 mm 4 m/s 744 mmHg 80%
    13:00 +11°C° 0 mm 4 m/s 744 mmHg 78%
    14:00 +10°C° 0 mm 5 m/s 744 mmHg 79%
    15:00 +9°C° 0 mm 6 m/s 744 mmHg 79%
    16:00 +9°C° 0 mm 6 m/s 744 mmHg 80%
    17:00 +8°C° 0 mm 7 m/s 744 mmHg 81%
    18:00 +8°C° 0 mm 7 m/s 745 mmHg 82%
    19:00 +6°C° 0 mm 8 m/s 745 mmHg 84%
    20:00 +5°C° 0 mm 8 m/s 745 mmHg 85%
    21:00 +5°C° 0 mm 9 m/s 746 mmHg 86%
    22:00 +5°C° 0 mm 9 m/s 746 mmHg 88%
    23:00 +3°C° 0 mm 9 m/s 746 mmHg 87%

    26 Ianuarie, Sâmbătă

    Timp Temperatura Precipitaţii Vânt Presiune Umiditate
    00:00 +4°C° 0 mm 8 m/s 747 mmHg 87%
    01:00 +4°C° 0 mm 8 m/s 747 mmHg 86%
    02:00 +4°C° 0 mm 8 m/s 747 mmHg 85%
    03:00 +2°C° 0 mm 8 m/s 747 mmHg 85%
    04:00 +3°C° 0 mm 7 m/s 747 mmHg 84%
    05:00 +3°C° 0 mm 7 m/s 747 mmHg 83%
    06:00 +3°C° 0 mm 7 m/s 748 mmHg 83%
    07:00 +3°C° 0 mm 7 m/s 748 mmHg 82%
    08:00 +4°C° 0 mm 7 m/s 749 mmHg 78%
    09:00 +5°C° 0 mm 6 m/s 749 mmHg 74%
    10:00 +7°C° 0 mm 6 m/s 749 mmHg 69%
    11:00 +7°C° 0 mm 6 m/s 749 mmHg 68%
    12:00 +8°C° 0 mm 6 m/s 749 mmHg 67%
    13:00 +8°C° 0 mm 6 m/s 749 mmHg 66%
    14:00 +8°C° 0 mm 6 m/s 749 mmHg 69%
    15:00 +7°C° 0 mm 6 m/s 749 mmHg 72%
    16:00 +7°C° 0 mm 6 m/s 750 mmHg 75%
    17:00 +6°C° 0 mm 5 m/s 750 mmHg 77%
    18:00 +6°C° 0 mm 5 m/s 750 mmHg 79%
    19:00 +5°C° 0 mm 5 m/s 751 mmHg 81%
    20:00 +5°C° 0 mm 5 m/s 751 mmHg 80%
    21:00 +5°C° 0 mm 4 m/s 752 mmHg 80%
    22:00 +5°C° 0 mm 4 m/s 752 mmHg 79%
    23:00 +5°C° 0.1 mm 4 m/s 752 mmHg 79%

    27 Ianuarie, Duminică

    Timp Temperatura Precipitaţii Vânt Presiune Umiditate
    00:00 +5°C° 0.1 mm 4 m/s 752 mmHg 79%
    01:00 +5°C° 0.1 mm 3 m/s 752 mmHg 79%
    02:00 +5°C° 0.1 mm 3 m/s 752 mmHg 79%
    03:00 +5°C° 0.1 mm 3 m/s 751 mmHg 80%
    04:00 +5°C° 0.1 mm 3 m/s 751 mmHg 80%
    05:00 +5°C° 0.2 mm 3 m/s 751 mmHg 81%
    06:00 +6°C° 0.2 mm 2 m/s 751 mmHg 82%
    07:00 +6°C° 0.2 mm 2 m/s 752 mmHg 82%
    08:00 +6°C° 0.2 mm 2 m/s 752 mmHg 81%
    09:00 +7°C° 0.2 mm 2 m/s 752 mmHg 80%
    10:00 +8°C° 0.2 mm 3 m/s 752 mmHg 78%
    11:00 +8°C° 0.4 mm 3 m/s 752 mmHg 84%
    12:00 +8°C° 0.4 mm 3 m/s 752 mmHg 89%
    13:00 +8°C° 0.4 mm 3 m/s 751 mmHg 95%
    14:00 +7°C° 0.2 mm 3 m/s 751 mmHg 96%
    15:00 +7°C° 0.2 mm 3 m/s 752 mmHg 97%
    16:00 +7°C° 0.2 mm 2 m/s 752 mmHg 98%
    17:00 +7°C° 0 mm 3 m/s 752 mmHg 97%
    18:00 +6°C° 0 mm 4 m/s 752 mmHg 97%
    19:00 +6°C° 0 mm 5 m/s 752 mmHg 97%
    20:00 +5°C° 0 mm 6 m/s 752 mmHg 96%
    21:00 +5°C° 0 mm 7 m/s 753 mmHg 95%
    22:00 +4°C° 0 mm 8 m/s 753 mmHg 94%
    23:00 +3°C° 0.1 mm 9 m/s 753 mmHg 93%

    28 Ianuarie, Luni

    Timp Temperatura Precipitaţii Vânt Presiune Umiditate
    00:00 +3°C° 0.1 mm 10 m/s 752 mmHg 92%
    01:00 +3°C° 0.1 mm 11 m/s 752 mmHg 91%
    02:00 +4°C° 0.1 mm 11 m/s 752 mmHg 91%
    03:00 +4°C° 0.1 mm 12 m/s 752 mmHg 91%
    04:00 +4°C° 0.1 mm 13 m/s 751 mmHg 91%
    05:00 +4°C° 0.1 mm 13 m/s 751 mmHg 90%
    06:00 +4°C° 0.1 mm 13 m/s 751 mmHg 88%
    07:00 +4°C° 0.1 mm 13 m/s 751 mmHg 87%
    08:00 +4°C° 0.5 mm 13 m/s 751 mmHg 88%
    09:00 +4°C° 0.5 mm 13 m/s 752 mmHg 89%
    10:00 +5°C° 0.5 mm 13 m/s 752 mmHg 91%
    11:00 +4°C° 0.3 mm 11 m/s 752 mmHg 93%
    12:00 +5°C° 0.3 mm 10 m/s 752 mmHg 95%
    13:00 +5°C° 0.3 mm 8 m/s 752 mmHg 96%
    14:00 +5°C° 0.1 mm 7 m/s 753 mmHg 97%
    15:00 +5°C° 0.1 mm 6 m/s 753 mmHg 97%
    16:00 +5°C° 0.1 mm 6 m/s 753 mmHg 97%
    17:00 +5°C° 0.1 mm 6 m/s 754 mmHg 96%
    18:00 +6°C° 0.1 mm 7 m/s 754 mmHg 95%
    19:00 +6°C° 0.1 mm 7 m/s 754 mmHg 95%
    20:00 +6°C° 0 mm 7 m/s 754 mmHg 95%
    21:00 +6°C° 0 mm 7 m/s 754 mmHg 96%
    22:00 +6°C° 0 mm 8 m/s 754 mmHg 97%
    23:00 +6°C° 1.6 mm 7 m/s 754 mmHg 97%
    Arată mai mult